Temperature
22 21 21 20 20 20 23 25 25 25 24 24 24 23 22 22 21 19 19 19 20 20 19 19 19 19 19 19 19 19 19 19 19 19 19 19 19 19 19 19 19 19 19 19 19 18 18 18 18
22 21 21 20 20 21 23 25 25 25 25 24 24 23 22 21 20 19 19 19 20 20 20 20 19 19 19 19 19 19 19 19 19 19 19 19 19 19 19 19 19 19 19 19 19 18 18 18 18
22 21 21 20 21 22 24 25 25 26 25 25 24 23 22 21 20 20 20 20 20 20 20 20 19 19 20 20 19 19 19 19 19 19 19 19 19 19 19 19 19 19 19 19 19 18 18 18 18
22 21 21 21 23 25 26 26 26 25 25 24 23 22 21 21 20 20 20 20 20 20 20 20 20 20 20 20 19 19 19 19 19 19 19 19 19 19 19 19 19 19 19 19 19 18 18 18 18
22 21 21 22 24 26 26 27 26 25 25 24 23 21 21 21 21 20 20 20 20 20 20 20 20 20 20 20 20 19 19 19 19 19 19 19 19 19 19 19 19 19 19 19 19 18 18 18 18
22 21 22 23 25 27 27 26 26 24 24 23 22 21 20 21 21 20 20 20 20 20 20 20 20 20 20 20 20 19 19 19 19 19 19 19 19 19 19 19 19 19 19 19 19 18 18 18 18
22 21 23 24 25 26 27 26 26 25 24 23 22 21 20 21 21 21 20 20 20 20 20 20 20 20 20 20 19 19 19 19 19 19 19 19 19 19 19 19 19 19 19 19 18 18 18 18 18
24 22 23 25 26 26 27 27 26 25 25 23 23 21 20 21 21 21 20 20 20 20 20 20 20 20 20 20 19 19 19 19 19 19 19 19 19 19 19 19 19 19 19 18 18 18 18 18 18
25 22 23 25 26 26 27 27 26 25 25 24 23 22 22 21 21 21 20 20 20 20 20 20 20 20 20 20 19 19 19 19 19 19 19 19 19 19 19 19 19 19 19 18 18 18 18 18 18
25 23 25 27 27 27 27 27 26 25 24 23 23 22 22 21 21 21 20 20 20 20 20 20 20 20 20 20 19 19 19 19 19 19 19 19 19 19 19 19 19 19 18 18 19 18 18 18 18
25 25 26 28 29 28 27 27 26 24 23 23 22 22 22 22 21 21 21 21 21 20 20 20 20 20 20 20 19 19 19 19 19 19 19 19 19 19 19 19 19 18 18 18 18 18 18 18 18
27 27 28 29 29 28 28 27 26 25 24 24 24 23 22 22 22 21 21 21 21 20 20 20 20 20 20 20 20 19 19 19 19 19 19 19 19 19 19 19 19 18 18 18 18 18 18 18 18
28 28 29 29 29 29 28 27 26 25 24 24 23 23 22 22 22 22 22 22 21 21 20 20 20 20 20 20 20 19 19 19 19 19 19 19 19 19 19 19 19 18 18 18 18 18 18 18 18
28 29 29 29 28 28 27 26 25 24 24 24 23 23 23 23 22 22 22 22 21 21 21 20 20 20 20 20 20 20 19 19 19 19 19 19 19 19 19 19 19 18 18 18 18 18 18 18 18
29 28 28 28 28 28 27 26 25 25 24 24 23 23 23 23 23 22 22 22 22 21 21 21 20 20 20 20 20 20 19 19 19 19 19 19 19 19 19 19 19 18 18 18 18 18 18 18 18
27 26 26 27 28 28 26 24 25 25 24 24 24 24 24 23 23 23 23 22 22 22 21 21 21 20 20 20 20 20 19 19 19 19 19 19 19 19 19 19 19 18 18 18 18 18 18 18 18
25 25 26 27 28 28 26 25 26 26 25 24 24 24 24 24 23 23 23 23 22 22 21 21 21 21 20 20 20 20 19 19 19 19 19 19 19 19 19 19 19 18 18 18 18 18 18 18 18
25 26 26 27 28 28 26 25 26 26 25 25 25 24 24 24 23 23 23 23 22 22 21 21 21 20 20 20 20 19 19 19 19 19 19 19 19 19 19 19 19 18 18 18 18 18 18 18 18
27 27 26 27 28 27 26 25 25 26 26 25 25 24 24 24 24 23 23 23 22 22 21 21 21 20 20 20 20 20 19 19 19 19 19 19 19 19 19 19 19 19 18 18 18 18 18 18 18
28 27 26 27 28 27 26 25 25 25 26 25 25 25 24 24 23 23 23 23 22 22 22 21 21 21 20 20 20 20 19 19 19 19 19 19 19 19 19 19 19 19 18 18 18 18 18 18 18
27 27 27 27 27 27 26 25 25 25 26 25 25 25 25 24 24 23 23 23 23 22 22 21 21 21 20 20 20 19 19 19 19 19 19 19 19 19 19 19 19 19 18 18 18 18 18 18 18
26 28 28 28 26 24 25 23 24 24 24 24 25 24 24 24 24 24 23 23 23 23 22 22 21 21 21 20 20 20 20 20 19 19 19 19 19 19 19 19 18 18 18 18 18 18 18 18 18
28 29 28 27 25 23 24 23 23 23 23 24 24 25 25 25 24 24 24 23 23 23 22 22 22 21 21 20 20 20 20 20 19 19 19 19 19 19 19 18 18 18 18 18 18 18 18 18 18
29 27 26 24 22 23 23 23 22 22 24 24 24 25 25 25 25 24 24 24 23 23 22 22 22 21 21 20 20 20 20 19 19 19 19 19 19 19 19 18 18 18 18 18 18 18 18 18 18
27 24 23 23 22 22 23 23 22 24 25 25 24 25 25 25 24 24 24 23 23 23 23 22 22 22 21 21 20 20 20 20 20 19 19 19 19 19 18 18 18 18 18 18 18 18 18 17 17
26 24 23 23 22 22 22 23 23 25 25 25 25 25 25 25 24 24 24 24 23 23 23 23 22 22 21 21 21 20 20 20 20 19 19 19 19 19 18 18 18 18 18 18 18 17 17 17 17
27 25 23 22 23 22 22 23 24 24 24 24 24 24 24 24 24 24 24 24 24 23 23 23 23 22 21 21 21 20 20 20 20 19 19 19 19 19 18 18 18 18 18 18 18 17 17 17 17
27 25 22 22 22 22 23 23 23 23 23 23 23 23 24 24 24 24 24 24 24 24 24 23 23 22 22 21 21 20 20 20 19 19 19 19 19 18 18 18 18 18 18 18 17 17 17 17 17
27 26 23 21 21 21 22 22 24 23 23 23 23 23 24 24 24 24 24 24 23 23 23 23 23 22 22 21 21 20 20 20 19 19 19 19 19 18 18 18 18 18 18 17 17 17 17 17 17
26 25 23 22 22 20 21 22 24 23 23 23 23 24 24 24 24 24 24 23 23 23 23 22 22 22 22 21 21 20 20 20 19 19 19 18 18 18 18 18 18 18 17 17 17 17 17 17 17
Wind_Speed
11 9 3 1 1 2 3 3 5 7 6 8 11 11 9 7 5 6 4 10 12 10 11 13 14 14 15 15 14 14 14 14 14 14 14 14 14 14 14 13 13 13 13 13 12 12 12 12 11
7 5 1 1 2 3 2 4 9 10 11 11 12 12 9 8 8 9 6 11 12 11 12 13 14 15 15 14 14 14 13 13 13 14 14 13 13 13 13 13 12 12 12 12 12 11 11 11 10
6 3 0 1 1 3 3 6 11 11 10 8 7 7 6 7 8 7 9 14 11 10 11 13 14 14 14 13 13 13 13 13 13 13 13 13 13 12 12 12 12 11 11 11 11 11 10 9 9
2 1 1 1 1 1 5 8 11 11 9 9 9 7 5 6 6 10 14 15 12 9 11 13 14 14 13 13 12 12 12 12 12 12 12 12 12 12 11 11 11 10 10 9 10 10 9 8 8
1 1 1 1 1 4 7 9 10 9 6 10 12 9 6 5 14 16 15 15 13 9 10 12 13 13 13 12 12 12 12 12 12 12 11 11 10 10 11 11 10 10 9 9 9 9 8 7 7
0 1 2 1 3 5 6 10 13 14 14 12 12 9 4 8 14 15 15 13 12 10 9 11 13 13 12 12 11 11 12 12 12 11 10 9 9 9 9 9 9 9 8 8 8 8 7 6 6
1 2 0 2 3 5 6 7 10 12 12 8 9 7 5 7 10 13 13 13 11 10 8 8 10 11 11 11 11 11 12 11 11 10 9 8 8 9 9 9 8 8 8 8 7 7 6 6 5
3 1 1 1 4 3 5 5 9 11 10 12 8 8 8 9 11 13 13 12 11 8 7 7 8 8 9 9 10 10 11 10 10 9 8 8 7 8 9 8 8 7 7 7 7 5 5 5 4
3 2 1 2 4 4 6 9 7 9 11 6 5 8 12 15 14 14 12 10 9 9 6 6 6 7 7 8 8 8 9 9 8 7 7 7 5 5 7 7 7 7 6 6 6 5 5 3 2
5 3 5 4 4 5 7 10 8 8 11 9 11 12 15 15 15 15 14 12 10 10 8 6 6 6 6 7 7 6 5 6 5 5 5 5 5 5 6 7 7 6 6 5 4 4 3 2 1
6 6 4 3 4 6 8 8 6 11 8 12 17 17 16 14 13 13 13 12 11 10 10 8 7 6 5 4 6 4 4 4 4 4 5 5 4 3 3 3 4 4 4 3 2 2 1 1 1
4 3 4 4 4 6 7 8 7 8 10 15 17 18 16 15 13 13 13 12 11 10 9 8 8 7 6 7 5 4 4 3 4 5 6 5 3 3 3 2 3 3 3 2 2 2 2 2 2
1 2 2 3 4 6 9 10 9 9 13 14 16 15 15 14 12 11 12 11 11 11 10 9 8 8 6 5 4 5 4 4 5 5 5 6 4 3 3 2 2 2 2 2 2 2 1 1 2
2 1 1 3 4 6 12 9 9 11 15 15 15 13 13 14 14 12 12 11 11 11 10 9 8 7 6 5 4 3 4 5 5 5 5 6 5 4 2 2 1 2 3 3 3 3 2 1 2
2 2 2 2 4 5 10 5 9 17 17 16 15 13 13 13 14 14 13 13 12 12 10 9 9 7 6 5 5 4 4 5 5 5 6 6 6 5 3 2 1 1 2 3 2 1 1 1 2
3 3 1 3 2 4 8 6 9 16 17 16 14 13 13 13 14 14 14 12 12 11 10 10 10 8 6 5 4 3 4 5 4 5 5 6 6 6 4 2 1 1 2 2 2 1 1 1 1
2 1 3 4 3 4 5 6 10 14 16 15 14 13 13 13 12 12 14 13 12 12 11 9 8 8 7 5 4 3 3 4 4 5 5 5 6 6 4 2 1 2 2 1 1 1 2 1 1
5 3 4 5 4 4 4 6 12 13 14 14 13 12 13 14 13 13 13 13 12 11 10 9 8 8 7 4 3 3 3 3 3 4 4 5 5 6 4 2 1 2 2 1 1 1 1 1 1
5 3 5 6 4 2 4 6 11 12 11 12 12 12 13 13 12 12 13 14 12 10 10 9 8 7 6 4 4 3 3 3 3 3 5 5 5 5 4 2 2 2 2 1 1 1 1 0 1
4 3 3 4 3 1 3 5 9 12 14 15 16 15 15 13 11 13 12 13 13 12 10 10 9 8 7 5 4 3 4 3 3 2 3 4 5 5 4 3 3 2 2 1 1 2 1 0 1
5 4 4 4 4 3 2 1 5 7 7 9 12 13 14 17 17 16 15 14 14 13 12 11 10 8 7 6 4 4 3 2 2 2 2 2 5 5 4 4 3 2 2 2 1 1 2 1 0
6 7 5 3 1 3 1 2 5 6 6 9 12 13 14 15 15 15 15 15 16 14 12 11 10 9 7 7 6 7 5 4 3 3 2 2 3 4 5 4 3 3 2 2 1 1 1 2 1
7 6 4 3 1 1 2 2 6 3 6 11 12 14 15 16 17 17 17 16 15 14 12 11 10 9 8 8 8 8 5 4 3 3 3 2 2 3 4 4 3 3 2 2 1 1 2 1 2
4 1 3 3 4 1 4 3 6 4 8 8 9 12 14 16 16 15 14 12 12 12 11 11 10 9 9 8 8 8 7 6 5 4 4 3 2 2 3 3 2 3 2 2 2 1 2 1 1
1 3 3 5 4 5 4 2 7 8 9 9 10 11 12 12 14 14 14 14 14 14 13 12 12 10 10 10 9 9 8 8 8 6 5 4 2 2 3 3 3 2 2 2 2 2 1 1 1
4 7 7 6 6 5 2 4 7 7 6 5 6 9 10 11 12 15 16 16 15 15 14 13 13 11 11 10 10 8 9 7 6 6 5 5 4 4 4 3 3 3 3 2 2 2 1 1 1
4 4 9 7 3 2 4 5 7 2 1 3 4 6 8 9 10 12 14 15 15 16 16 15 14 11 10 10 9 8 8 8 7 6 5 4 4 4 4 3 3 3 3 3 3 2 1 1 1
8 7 5 5 4 3 4 4 5 4 3 4 6 6 7 7 8 9 10 12 13 14 14 13 13 13 10 10 9 8 7 7 7 6 6 5 5 4 4 4 4 3 3 3 3 2 1 1 1
3 2 4 4 5 6 4 7 6 8 8 8 7 8 9 9 8 8 8 9 10 10 11 12 12 11 9 9 8 7 7 6 6 6 6 6 5 5 5 5 5 4 3 3 3 2 2 1 1
5 5 6 5 3 5 4 7 5 5 6 7 6 6 7 8 9 9 9 8 8 9 11 12 12 11 10 9 9 8 8 7 7 6 6 6 5 5 6 6 5 5 4 3 3 3 2 2 2
Wind_Direction
166 159 163 161 45 38 80 90 103 83 61 67 80 85 84 67 96 129 149 136 131 131 133 129 125 124 123 123 122 121 120 120 120 120 120 121 123 123 124 123 123 124 127 131 133 133 131 130 130
162 164 173 40 62 73 63 98 91 95 118 107 84 83 78 72 85 112 124 134 134 133 134 131 128 127 125 124 125 125 124 122 123 124 124 125 126 127 127 127 126 128 130 132 134 134 135 134 132
173 191 209 34 76 132 123 108 106 106 110 99 91 68 71 100 112 127 139 138 132 131 133 134 130 128 126 124 125 127 127 127 128 128 128 128 128 129 130 131 131 132 132 133 136 137 139 138 136
158 154 11 44 135 155 128 124 116 107 86 78 94 73 69 97 116 133 137 136 132 130 136 138 131 130 128 126 127 129 131 131 130 131 131 131 132 133 135 134 134 135 136 137 141 143 143 143 139
144 95 28 36 110 105 115 119 109 99 87 90 94 95 81 88 120 131 137 138 136 136 142 142 134 129 129 128 127 130 135 134 133 134 133 133 136 137 138 140 141 140 141 143 145 150 148 145 141
145 90 52 49 101 107 110 113 103 97 105 104 103 102 98 128 130 140 140 139 140 142 144 144 138 134 131 130 130 133 138 138 138 138 139 140 142 145 145 144 146 146 147 149 152 150 151 152 150
160 81 174 151 104 102 118 122 115 125 124 125 123 102 122 144 142 140 141 139 140 142 142 142 143 140 136 135 135 136 139 141 141 142 144 147 152 154 156 157 155 155 157 159 157 157 158 162 164
178 97 320 136 108 113 131 117 124 123 119 130 124 123 150 165 143 134 137 137 139 143 146 144 143 143 144 145 141 140 143 146 148 149 150 153 156 159 164 166 166 163 162 166 168 166 169 170 169
153 81 242 192 138 152 135 109 101 101 112 122 102 125 148 145 134 129 130 132 142 147 154 148 143 147 149 149 148 150 151 155 158 157 154 150 150 158 165 167 161 160 164 170 174 176 183 188 182
146 162 215 193 165 148 132 125 125 107 104 102 105 117 136 138 137 139 143 148 153 158 164 164 156 157 157 153 145 152 157 162 162 157 145 145 152 165 166 169 163 160 167 176 174 173 189 186 194
162 184 203 190 169 145 134 124 115 119 123 143 142 145 147 145 145 147 151 156 161 163 165 166 165 163 161 142 145 152 156 168 162 153 155 148 151 164 166 166 164 167 167 176 184 205 214 212 204
155 204 197 191 164 135 137 129 112 126 154 155 150 152 153 155 158 157 156 158 155 153 154 155 156 153 151 145 150 155 156 166 164 161 154 147 143 141 156 168 174 179 183 187 210 225 225 218 189
136 225 209 163 127 128 121 121 120 128 143 147 148 152 157 160 160 158 155 153 148 149 153 155 152 148 145 138 150 154 161 163 168 167 160 152 143 138 145 163 174 191 187 197 202 207 206 190 182
255 244 124 151 137 129 122 122 115 146 151 152 156 162 163 162 159 155 152 152 153 155 155 157 155 153 147 149 154 152 161 165 162 167 167 158 153 152 144 142 167 199 190 181 179 190 191 187 173
348 6 6 184 132 142 120 114 148 159 158 160 167 172 169 166 162 163 163 161 160 158 155 158 158 154 151 153 163 154 166 162 159 172 167 158 153 154 147 140 145 205 193 161 158 168 135 147 147
360 27 322 265 140 162 125 165 175 163 161 167 172 173 170 168 168 167 163 161 160 157 157 163 160 157 159 160 164 156 160 160 161 159 154 149 150 146 141 133 142 147 123 125 129 128 105 101 129
6 305 267 279 203 161 139 175 183 169 167 172 175 172 169 168 170 169 165 162 160 159 160 162 155 159 162 161 159 154 143 148 152 144 145 145 138 139 140 136 153 127 105 98 128 113 131 141 155
253 258 263 259 233 161 168 182 175 176 173 178 178 174 172 173 175 169 163 162 160 159 158 157 156 161 157 148 134 122 114 125 135 143 149 146 143 142 140 137 128 119 108 93 89 108 119 154 166
237 236 267 267 260 148 187 185 183 182 182 185 181 180 179 179 174 165 162 161 161 160 158 160 158 163 151 148 147 143 150 146 145 162 155 149 147 144 139 141 129 122 119 132 119 118 111 43 105
258 262 279 295 284 198 181 197 192 187 191 191 187 185 182 175 169 168 165 166 169 168 167 164 164 165 161 161 162 157 152 158 160 156 152 154 149 150 151 143 149 141 126 97 86 116 116 228 124
268 231 237 250 322 17 94 304 207 207 200 196 193 189 183 178 176 176 173 174 171 173 173 171 170 168 165 158 142 127 104 91 93 125 159 164 149 145 145 146 148 143 137 140 141 136 131 151 288
257 244 236 240 288 288 122 223 252 224 217 205 199 193 189 184 178 177 177 177 177 179 174 169 170 169 167 159 152 152 157 166 186 176 166 160 152 148 148 146 139 140 138 145 163 125 133 137 163
233 231 221 235 187 339 319 168 272 225 222 221 206 195 191 187 183 181 180 182 180 175 172 171 170 171 169 167 165 163 165 173 165 154 149 159 155 153 152 146 140 144 148 151 130 100 122 140 162
231 345 7 31 65 320 257 182 270 231 217 217 209 196 190 188 186 184 181 178 173 171 172 171 172 177 174 173 172 170 168 166 157 159 162 169 166 160 156 153 150 154 154 155 149 139 127 128 123
167 101 8 337 352 256 250 189 245 238 219 207 201 193 182 181 183 180 177 179 173 170 175 179 177 181 180 178 181 179 173 171 174 174 174 169 169 176 188 172 165 161 164 158 145 132 125 133 134
223 158 174 211 228 261 287 228 249 244 231 200 176 181 172 177 183 185 184 180 176 174 176 178 179 182 184 184 186 184 176 176 180 180 176 181 189 193 186 178 173 169 156 153 143 138 161 129 146
209 208 185 160 193 247 266 276 299 309 118 129 146 159 165 175 180 185 186 180 176 178 180 179 178 179 183 185 181 182 180 176 179 179 174 180 183 182 173 167 163 161 153 152 146 156 180 144 159
190 179 107 130 167 239 272 259 246 242 199 168 170 167 169 166 171 173 177 182 183 183 181 177 175 180 183 185 186 184 178 174 172 168 174 180 183 176 164 161 155 153 152 149 147 150 164 148 203
214 175 141 139 156 169 229 260 231 203 193 180 184 182 177 169 175 178 179 178 178 176 176 177 178 178 183 186 184 179 175 172 168 173 181 181 176 169 168 166 159 158 163 161 157 174 171 183 243
182 184 155 162 218 170 181 259 272 194 193 172 175 175 169 171 174 177 175 169 166 167 170 174 177 179 182 183 183 179 178 175 177 182 184 181 178 176 175 170 165 173 178 174 173 192 194 204 228
Height
1512 1512 1512 1514 1515 1519 1517 1507 1500 1499 1500 1502 1501 1502 1506 1510 1515 1524 1521 1521 1522 1523 1524 1524 1525 1525 1526 1527 1527 1528 1529 1530 1530 1531 1532 1533 1534 1535 1536 1537 1538 1539 1540 1541 1542 1543 1545 1546 1547
1513 1513 1514 1514 1519 1528 1519 1505 1502 1501 1502 1502 1503 1505 1508 1513 1515 1518 1520 1522 1523 1524 1525 1526 1526 1526 1527 1528 1529 1529 1530 1531 1531 1532 1533 1534 1535 1536 1537 1538 1539 1540 1541 1542 1543 1544 1546 1547 1549
1514 1514 1515 1515 1519 1523 1516 1504 1502 1502 1502 1501 1505 1508 1511 1515 1517 1519 1521 1523 1524 1525 1526 1527 1528 1528 1529 1529 1529 1530 1531 1531 1532 1533 1534 1535 1536 1537 1538 1539 1540 1541 1542 1543 1544 1545 1547 1548 1549
1514 1515 1516 1518 1518 1508 1504 1502 1500 1502 1504 1504 1506 1511 1515 1518 1518 1520 1522 1524 1525 1527 1528 1529 1529 1529 1530 1530 1530 1530 1531 1532 1533 1534 1535 1537 1538 1538 1539 1540 1541 1542 1543 1544 1544 1546 1547 1549 1550
1514 1515 1518 1520 1513 1504 1501 1500 1500 1501 1504 1507 1507 1514 1518 1520 1520 1522 1523 1525 1526 1528 1529 1530 1530 1531 1531 1531 1531 1531 1532 1533 1534 1535 1537 1538 1539 1540 1541 1541 1542 1543 1544 1545 1545 1547 1548 1550 1551
1515 1515 1523 1524 1512 1504 1502 1501 1501 1505 1508 1511 1511 1515 1521 1522 1522 1523 1525 1526 1528 1529 1530 1531 1532 1532 1532 1533 1533 1532 1533 1534 1535 1536 1538 1539 1540 1541 1542 1542 1543 1544 1545 1546 1547 1548 1549 1550 1552
1515 1516 1521 1517 1512 1507 1504 1503 1502 1505 1509 1511 1512 1516 1522 1524 1524 1524 1525 1527 1529 1531 1532 1533 1533 1534 1534 1534 1534 1535 1535 1536 1537 1538 1539 1540 1540 1541 1542 1543 1544 1545 1546 1547 1548 1549 1550 1551 1552
1512 1516 1518 1515 1512 1509 1503 1503 1504 1504 1509 1512 1513 1515 1521 1523 1524 1524 1525 1528 1530 1532 1533 1534 1535 1535 1535 1536 1536 1536 1537 1538 1539 1539 1540 1540 1541 1542 1543 1544 1545 1546 1547 1547 1549 1549 1551 1552 1553
1511 1519 1521 1514 1509 1507 1503 1503 1506 1507 1509 1512 1513 1515 1518 1522 1524 1525 1526 1529 1531 1533 1535 1536 1536 1536 1537 1537 1538 1538 1539 1539 1540 1541 1541 1542 1542 1543 1544 1545 1546 1547 1548 1548 1550 1551 1552 1553 1553
1509 1519 1513 1504 1502 1502 1502 1503 1506 1510 1512 1514 1516 1518 1521 1523 1525 1526 1528 1530 1532 1534 1536 1537 1538 1538 1538 1539 1540 1540 1540 1541 1541 1542 1542 1543 1543 1544 1545 1546 1547 1548 1549 1549 1551 1552 1553 1553 1554
1505 1509 1502 1500 1500 1501 1502 1505 1506 1509 1514 1514 1515 1519 1522 1524 1527 1528 1529 1531 1533 1534 1536 1538 1539 1539 1540 1540 1541 1541 1542 1542 1542 1543 1543 1544 1544 1545 1546 1547 1548 1549 1549 1550 1551 1552 1553 1554 1554
1503 1501 1500 1499 1499 1500 1502 1504 1507 1508 1512 1513 1515 1518 1522 1525 1527 1528 1530 1531 1533 1535 1536 1538 1539 1540 1541 1541 1542 1543 1543 1543 1543 1543 1544 1544 1545 1546 1547 1547 1548 1549 1550 1551 1551 1552 1553 1554 1555
1501 1501 1499 1498 1498 1500 1501 1503 1506 1510 1512 1515 1517 1520 1522 1525 1527 1529 1531 1532 1534 1535 1537 1538 1540 1541 1542 1543 1543 1544 1544 1544 1544 1545 1545 1546 1546 1547 1547 1548 1549 1550 1550 1551 1551 1552 1553 1554 1554
1500 1499 1498 1499 1499 1500 1502 1506 1508 1513 1514 1516 1518 1520 1523 1525 1527 1529 1531 1533 1534 1536 1537 1539 1540 1541 1542 1543 1544 1544 1545 1545 1546 1546 1546 1546 1547 1547 1548 1549 1549 1550 1551 1551 1552 1552 1553 1554 1554
1499 1500 1499 1498 1498 1501 1503 1510 1508 1510 1513 1516 1518 1520 1522 1524 1527 1528 1530 1532 1534 1536 1537 1539 1540 1542 1543 1544 1544 1545 1545 1546 1546 1547 1547 1547 1547 1548 1548 1549 1549 1550 1551 1551 1552 1553 1553 1554 1554
1501 1506 1511 1500 1498 1500 1507 1518 1509 1510 1512 1514 1517 1519 1522 1523 1525 1528 1530 1532 1534 1535 1537 1539 1540 1541 1543 1544 1545 1545 1546 1546 1546 1547 1547 1548 1548 1548 1549 1549 1550 1550 1551 1551 1552 1553 1553 1553 1554
1510 1517 1514 1504 1496 1498 1504 1513 1508 1509 1511 1513 1515 1517 1520 1522 1525 1527 1529 1531 1533 1535 1536 1538 1540 1541 1542 1544 1545 1545 1546 1546 1547 1547 1547 1548 1548 1548 1549 1549 1549 1550 1551 1551 1551 1552 1552 1553 1553
1518 1515 1512 1507 1496 1497 1503 1506 1505 1507 1509 1511 1513 1516 1518 1520 1522 1525 1528 1530 1532 1534 1536 1537 1539 1540 1542 1543 1544 1545 1545 1546 1546 1547 1547 1548 1548 1548 1549 1549 1549 1550 1550 1550 1551 1551 1551 1552 1552
1504 1508 1510 1502 1494 1498 1503 1504 1504 1505 1507 1509 1511 1514 1516 1518 1521 1524 1526 1529 1532 1533 1535 1536 1538 1539 1541 1542 1543 1544 1544 1545 1546 1547 1547 1548 1548 1548 1548 1549 1549 1549 1549 1550 1550 1550 1551 1551 1551
1500 1507 1508 1501 1493 1498 1504 1504 1501 1501 1502 1503 1506 1509 1513 1516 1519 1522 1524 1526 1529 1531 1533 1534 1536 1538 1539 1540 1542 1543 1544 1545 1546 1546 1547 1547 1547 1548 1548 1548 1548 1548 1548 1549 1549 1549 1550 1550 1551
1501 1504 1505 1505 1498 1497 1504 1511 1506 1501 1502 1503 1505 1507 1510 1511 1514 1517 1520 1522 1525 1528 1530 1532 1534 1536 1538 1539 1541 1542 1543 1544 1545 1545 1546 1547 1547 1547 1547 1548 1548 1548 1548 1548 1548 1549 1549 1549 1550
1504 1492 1493 1498 1508 1517 1510 1529 1513 1504 1503 1501 1502 1504 1506 1509 1511 1514 1517 1519 1521 1524 1528 1530 1533 1535 1536 1538 1539 1540 1541 1542 1544 1545 1545 1546 1546 1547 1547 1547 1547 1547 1547 1547 1548 1548 1548 1549 1549
1492 1485 1489 1495 1505 1517 1514 1524 1518 1506 1505 1498 1496 1498 1501 1505 1507 1510 1513 1516 1518 1522 1525 1528 1531 1533 1535 1536 1538 1539 1540 1542 1543 1544 1545 1545 1546 1546 1546 1547 1546 1546 1546 1547 1547 1547 1547 1548 1548
1483 1488 1494 1502 1513 1530 1519 1523 1522 1507 1499 1494 1492 1494 1497 1501 1505 1508 1511 1514 1517 1520 1523 1526 1529 1531 1533 1535 1537 1538 1539 1540 1542 1543 1543 1544 1545 1545 1545 1546 1546 1546 1546 1546 1546 1546 1546 1546 1547
1485 1505 1527 1531 1538 1532 1515 1518 1515 1493 1488 1488 1489 1490 1493 1497 1501 1504 1508 1511 1513 1516 1520 1523 1525 1528 1531 1533 1534 1536 1538 1539 1540 1541 1542 1543 1543 1543 1544 1544 1544 1544 1545 1545 1545 1545 1545 1545 1545
1487 1500 1526 1539 1540 1530 1517 1518 1502 1485 1483 1484 1486 1488 1491 1494 1497 1500 1503 1506 1510 1513 1517 1520 1522 1525 1528 1530 1532 1534 1536 1537 1538 1539 1540 1541 1542 1542 1542 1543 1543 1543 1543 1543 1543 1543 1543 1544 1544
1486 1493 1495 1515 1521 1530 1524 1510 1494 1483 1482 1483 1486 1488 1488 1491 1494 1497 1501 1504 1507 1510 1513 1516 1519 1522 1525 1527 1530 1532 1533 1535 1536 1538 1539 1539 1540 1540 1540 1541 1541 1541 1541 1542 1542 1542 1542 1542 1542
1474 1481 1499 1514 1529 1535 1525 1515 1507 1491 1487 1484 1485 1486 1488 1490 1493 1496 1499 1502 1505 1508 1510 1514 1516 1519 1522 1525 1527 1529 1531 1533 1534 1535 1536 1537 1538 1538 1538 1539 1539 1539 1540 1540 1540 1540 1540 1540 1540
1477 1483 1492 1507 1512 1529 1534 1520 1486 1484 1482 1482 1483 1484 1485 1488 1492 1494 1497 1500 1503 1506 1509 1511 1514 1517 1520 1522 1524 1526 1528 1530 1532 1533 1534 1534 1535 1536 1537 1537 1537 1537 1538 1538 1538 1538 1538 1538 1538
1469 1477 1489 1507 1512 1515 1523 1513 1478 1478 1477 1479 1481 1482 1484 1486 1489 1492 1495 1498 1500 1503 1506 1508 1511 1514 1517 1520 1522 1523 1525 1527 1529 1530 1531 1532 1533 1533 1534 1535 1535 1535 1535 1536 1536 1536 1536 1536 1536